Time,TemperatureF,DewpointF,PressureIn,WindDirection,WindDirectionDegrees,WindSpeedMPH,WindSpeedGustMPH,Humidity,HourlyPrecipIn,Conditions,Clouds,dailyrainin,SoftwareType,DateUTC
2013-10-03 00:01:00,58.5,58.0,30.04,SW,229,0.0,0.0,98,0.00,,,0.00,VWS V14.01,2013-10-03 04:01:00,
2013-10-03 00:02:00,58.4,58.0,30.04,SW,229,0.0,0.0,98,0.00,,,0.00,VWS V14.01,2013-10-03 04:02:00,
2013-10-03 00:03:00,58.4,58.0,30.04,SW,229,0.0,0.0,98,0.00,,,0.00,VWS V14.01,2013-10-03 04:03:00,
2013-10-03 00:06:00,58.3,57.8,30.05,SW,229,0.0,0.0,98,0.00,,,0.00,VWS V14.01,2013-10-03 04:06:00,
2013-10-03 00:10:00,58.2,57.8,30.04,SW,229,0.0,0.0,98,0.00,,,0.00,VWS V14.01,2013-10-03 04:10:00,
2013-10-03 00:15:00,58.0,57.6,30.04,SW,229,0.0,0.0,98,0.00,,,0.00,VWS V14.01,2013-10-03 04:15:00,
2013-10-03 00:20:00,57.9,57.5,30.04,SW,229,0.0,0.0,99,0.00,,,0.00,VWS V14.01,2013-10-03 04:20:00,
2013-10-03 00:25:00,57.8,57.4,30.04,SW,229,0.0,0.0,99,0.00,,,0.00,VWS V14.01,2013-10-03 04:25:00,
2013-10-03 00:30:00,57.7,57.3,30.04,SW,229,0.0,0.0,99,0.00,,,0.00,VWS V14.01,2013-10-03 04:30:00,
2013-10-03 00:35:00,57.5,57.2,30.04,SW,229,0.0,0.0,99,0.00,,,0.00,VWS V14.01,2013-10-03 04:35:00,
2013-10-03 00:40:00,57.4,57.1,30.04,SW,229,0.0,0.0,99,0.00,,,0.00,VWS V14.01,2013-10-03 04:40:00,
2013-10-03 00:45:00,57.3,57.0,30.05,SW,229,0.0,0.0,99,0.00,,,0.00,VWS V14.01,2013-10-03 04:45:00,
2013-10-03 00:50:00,57.2,57.0,30.05,SW,229,0.0,0.0,99,0.00,,,0.00,VWS V14.01,2013-10-03 04:50:00,
2013-10-03 00:55:00,57.1,56.9,30.04,SW,229,0.0,0.0,99,0.00,,,0.00,VWS V14.01,2013-10-03 04:55:00,
2013-10-03 01:00:00,57.0,56.8,30.05,SW,229,0.0,0.0,99,0.00,,,0.00,VWS V14.01,2013-10-03 05:00:00,
2013-10-03 01:05:00,57.0,56.9,30.05,SW,229,0.0,0.0,100,0.00,,,0.00,VWS V14.01,2013-10-03 05:05:00,
2013-10-03 01:10:00,57.0,56.9,30.06,SW,229,0.0,0.0,100,0.00,,,0.00,VWS V14.01,2013-10-03 05:10:00,
2013-10-03 01:15:00,56.8,56.7,30.05,SW,229,0.0,0.0,100,0.00,,,0.00,VWS V14.01,2013-10-03 05:15:00,
2013-10-03 01:20:00,56.7,56.6,30.06,SW,229,0.0,0.0,100,0.00,,,0.00,VWS V14.01,2013-10-03 05:20:00,
2013-10-03 01:25:00,56.6,56.5,30.06,SW,229,0.0,0.0,100,0.00,,,0.00,VWS V14.01,2013-10-03 05:25:00,
2013-10-03 01:30:00,56.5,56.5,30.06,SW,229,0.0,0.0,100,0.00,,,0.00,VWS V14.01,2013-10-03 05:30:00,
2013-10-03 01:35:00,56.4,56.3,30.05,SW,229,0.0,0.0,100,0.00,,,0.00,VWS V14.01,2013-10-03 05:35:00,
2013-10-03 01:40:00,56.3,56.2,30.06,SW,229,0.0,0.0,100,0.00,,,0.00,VWS V14.01,2013-10-03 05:40:00,
2013-10-03 01:45:00,56.2,56.2,30.06,SW,229,0.0,0.0,100,0.00,,,0.00,VWS V14.01,2013-10-03 05:45:00,
2013-10-03 01:50:00,56.1,56.1,30.07,SW,229,0.0,0.0,100,0.00,,,0.00,VWS V14.01,2013-10-03 05:50:00,
2013-10-03 01:55:00,55.9,55.9,30.07,SW,229,0.0,0.0,100,0.00,,,0.00,VWS V14.01,2013-10-03 05:55:00,
2013-10-03 02:00:00,55.8,55.8,30.06,SW,229,0.0,0.0,100,0.00,,,0.00,VWS V14.01,2013-10-03 06:00:00,
2013-10-03 02:06:00,55.7,55.7,30.06,SW,229,0.0,0.0,100,0.00,,,0.00,VWS V14.01,2013-10-03 06:06:00,
2013-10-03 02:11:00,55.6,55.6,30.06,SW,229,0.0,0.0,100,0.00,,,0.00,VWS V14.01,2013-10-03 06:11:00,
2013-10-03 02:16:00,55.5,55.5,30.07,SW,229,0.0,0.0,100,0.00,,,0.00,VWS V14.01,2013-10-03 06:16:00,
2013-10-03 02:21:00,55.5,55.5,30.07,SW,229,0.0,0.0,100,0.00,,,0.00,VWS V14.01,2013-10-03 06:21:00,
2013-10-03 02:26:00,55.4,55.4,30.07,SW,229,0.0,0.0,100,0.00,,,0.00,VWS V14.01,2013-10-03 06:26:00,
2013-10-03 02:31:00,55.2,55.2,30.06,SW,229,0.0,0.0,100,0.00,,,0.00,VWS V14.01,2013-10-03 06:31:00,
2013-10-03 02:36:00,55.0,55.0,30.07,SW,229,0.0,0.0,100,0.00,,,0.00,VWS V14.01,2013-10-03 06:36:00,
2013-10-03 02:41:00,54.8,54.8,30.07,SW,229,0.0,0.0,100,0.00,,,0.00,VWS V14.01,2013-10-03 06:41:00,
2013-10-03 02:46:00,54.7,54.7,30.07,SW,229,0.0,0.0,100,0.00,,,0.00,VWS V14.01,2013-10-03 06:46:00,
2013-10-03 02:51:00,54.5,54.5,30.07,SW,229,0.0,0.0,100,0.00,,,0.00,VWS V14.01,2013-10-03 06:51:00,
2013-10-03 02:56:00,54.4,54.4,30.06,SW,229,0.0,0.0,100,0.00,,,0.00,VWS V14.01,2013-10-03 06:56:00,
2013-10-03 03:01:00,54.2,54.2,30.07,SW,229,0.0,0.0,100,0.00,,,0.00,VWS V14.01,2013-10-03 07:01:00,
2013-10-03 03:06:00,54.0,54.0,30.07,SW,229,0.0,0.0,100,0.00,,,0.00,VWS V14.01,2013-10-03 07:06:00,
2013-10-03 03:11:00,53.9,53.9,30.07,SW,229,0.0,0.0,100,0.00,,,0.00,VWS V14.01,2013-10-03 07:11:00,
2013-10-03 03:16:00,53.7,53.7,30.07,SW,229,0.0,0.0,100,0.00,,,0.00,VWS V14.01,2013-10-03 07:16:00,
2013-10-03 03:21:00,53.5,53.5,30.07,SW,229,0.0,0.0,100,0.00,,,0.00,VWS V14.01,2013-10-03 07:21:00,
2013-10-03 03:27:00,53.4,53.4,30.08,SW,229,0.0,0.0,100,0.00,,,0.00,VWS V14.01,2013-10-03 07:27:00,
2013-10-03 03:32:00,53.3,53.3,30.08,SW,229,0.0,0.0,100,0.00,,,0.00,VWS V14.01,2013-10-03 07:32:00,
2013-10-03 03:37:00,53.3,53.3,30.08,SW,229,0.0,0.0,100,0.00,,,0.00,VWS V14.01,2013-10-03 07:37:00,
2013-10-03 03:42:00,53.1,53.1,30.08,SW,229,0.0,0.0,100,0.00,,,0.00,VWS V14.01,2013-10-03 07:42:00,
2013-10-03 03:47:00,53.0,53.0,30.08,SW,229,0.0,0.0,100,0.00,,,0.00,VWS V14.01,2013-10-03 07:47:00,
2013-10-03 03:52:00,52.9,52.9,30.08,SW,229,0.0,0.0,100,0.00,,,0.00,VWS V14.01,2013-10-03 07:52:00,
2013-10-03 03:57:00,52.7,52.7,30.09,SW,229,0.0,0.0,100,0.00,,,0.00,VWS V14.01,2013-10-03 07:57:00,
2013-10-03 04:02:00,52.7,52.7,30.08,SW,229,0.0,0.0,100,0.00,,,0.00,VWS V14.01,2013-10-03 08:02:00,
2013-10-03 04:07:00,52.4,52.4,30.08,SW,229,0.0,0.0,100,0.00,,,0.00,VWS V14.01,2013-10-03 08:07:00,
2013-10-03 04:12:00,52.3,52.3,30.08,SW,229,0.0,0.0,100,0.00,,,0.00,VWS V14.01,2013-10-03 08:12:00,
2013-10-03 04:17:00,52.1,52.1,30.09,SW,229,0.0,0.0,100,0.00,,,0.00,VWS V14.01,2013-10-03 08:17:00,
2013-10-03 04:22:00,52.0,52.0,30.10,SW,229,0.0,0.0,100,0.00,,,0.00,VWS V14.01,2013-10-03 08:22:00,
2013-10-03 04:27:00,51.9,51.9,30.10,SW,229,0.0,0.0,100,0.00,,,0.00,VWS V14.01,2013-10-03 08:27:00,
2013-10-03 04:32:00,51.8,51.8,30.09,SW,229,0.0,0.0,100,0.00,,,0.00,VWS V14.01,2013-10-03 08:32:00,
2013-10-03 04:37:00,51.7,51.7,30.08,SW,229,0.0,0.0,100,0.00,,,0.00,VWS V14.01,2013-10-03 08:37:00,
2013-10-03 04:42:00,51.6,51.6,30.09,SW,229,0.0,0.0,100,0.00,,,0.00,VWS V14.01,2013-10-03 08:42:00,
2013-10-03 04:47:00,51.5,51.5,30.09,SW,229,0.0,0.0,100,0.00,,,0.00,VWS V14.01,2013-10-03 08:47:00,
2013-10-03 04:52:00,51.4,51.4,30.09,SW,229,0.0,0.0,100,0.00,,,0.00,VWS V14.01,2013-10-03 08:52:00,
2013-10-03 04:57:00,51.3,51.3,30.09,SW,229,0.0,0.0,100,0.00,,,0.00,VWS V14.01,2013-10-03 08:57:00,
2013-10-03 05:02:00,51.1,51.1,30.08,SW,229,0.0,0.0,100,0.00,,,0.00,VWS V14.01,2013-10-03 09:02:00,
2013-10-03 05:07:00,51.0,51.0,30.09,SW,229,0.0,0.0,100,0.00,,,0.00,VWS V14.01,2013-10-03 09:07:00,
2013-10-03 05:12:00,50.8,50.8,30.09,SW,229,0.0,0.0,100,0.00,,,0.00,VWS V14.01,2013-10-03 09:12:00,
2013-10-03 05:17:00,50.7,50.7,30.10,SW,229,0.0,0.0,100,0.00,,,0.00,VWS V14.01,2013-10-03 09:17:00,
2013-10-03 05:22:00,50.7,50.7,30.09,SW,229,0.0,0.0,100,0.00,,,0.00,VWS V14.01,2013-10-03 09:22:00,
2013-10-03 05:27:00,50.6,50.6,30.09,SW,229,0.0,0.0,100,0.00,,,0.00,VWS V14.01,2013-10-03 09:27:00,
2013-10-03 05:32:00,50.4,50.4,30.09,SW,229,0.0,0.0,100,0.00,,,0.00,VWS V14.01,2013-10-03 09:32:00,
2013-10-03 05:38:00,50.4,50.4,30.10,SW,229,0.0,0.0,100,0.00,,,0.00,VWS V14.01,2013-10-03 09:38:00,
2013-10-03 05:43:00,50.3,50.3,30.10,SW,229,0.0,0.0,100,0.00,,,0.00,VWS V14.01,2013-10-03 09:43:00,
2013-10-03 05:48:00,50.2,50.2,30.09,SW,229,0.0,0.0,100,0.00,,,0.00,VWS V14.01,2013-10-03 09:48:00,
2013-10-03 05:53:00,50.1,50.1,30.10,SW,229,0.0,0.0,100,0.00,,,0.00,VWS V14.01,2013-10-03 09:53:00,
2013-10-03 05:58:00,49.9,49.9,30.10,SW,229,0.0,0.0,100,0.00,,,0.00,VWS V14.01,2013-10-03 09:58:00,
2013-10-03 06:03:00,50.0,50.0,30.11,SW,229,0.0,0.0,100,0.00,,,0.00,VWS V14.01,2013-10-03 10:03:00,
2013-10-03 06:08:00,49.9,49.9,30.11,SW,229,0.0,0.0,100,0.00,,,0.00,VWS V14.01,2013-10-03 10:08:00,
2013-10-03 06:13:00,49.8,49.8,30.10,SW,229,0.0,0.0,100,0.00,,,0.00,VWS V14.01,2013-10-03 10:13:00,
2013-10-03 06:18:00,49.7,49.7,30.10,SW,229,0.0,0.0,100,0.00,,,0.00,VWS V14.01,2013-10-03 10:18:00,
2013-10-03 06:23:00,49.7,49.7,30.11,SW,229,0.0,0.0,100,0.00,,,0.00,VWS V14.01,2013-10-03 10:23:00,
2013-10-03 06:28:00,49.7,49.7,30.12,SW,229,0.0,0.0,100,0.00,,,0.00,VWS V14.01,2013-10-03 10:28:00,
2013-10-03 06:33:00,49.7,49.7,30.12,SW,229,0.0,0.0,100,0.00,,,0.00,VWS V14.01,2013-10-03 10:33:00,
2013-10-03 06:38:00,49.6,49.6,30.11,SW,229,0.0,0.0,100,0.00,,,0.00,VWS V14.01,2013-10-03 10:38:00,
2013-10-03 06:43:00,49.4,49.4,30.11,SW,229,0.0,0.0,100,0.00,,,0.00,VWS V14.01,2013-10-03 10:43:00,
2013-10-03 06:48:00,49.4,49.4,30.12,SW,229,0.0,0.0,100,0.00,,,0.00,VWS V14.01,2013-10-03 10:48:00,
2013-10-03 06:53:00,49.3,49.3,30.13,SW,229,0.0,0.0,100,0.00,,,0.00,VWS V14.01,2013-10-03 10:53:00,
2013-10-03 06:59:00,49.2,49.2,30.12,SW,229,0.0,0.0,100,0.00,,,0.00,VWS V14.01,2013-10-03 10:59:00,
2013-10-03 07:04:00,49.3,49.3,30.12,SW,229,0.0,0.0,100,0.00,,CLR,0.00,VWS V14.01,2013-10-03 11:04:00,
2013-10-03 07:09:00,49.2,49.2,30.13,SW,229,0.0,0.0,100,0.00,,CLR,0.00,VWS V14.01,2013-10-03 11:09:00,
2013-10-03 07:14:00,49.1,49.1,30.13,SW,229,0.0,0.0,100,0.00,,CLR,0.00,VWS V14.01,2013-10-03 11:14:00,
2013-10-03 07:19:00,49.1,49.1,30.13,SW,229,0.0,0.0,100,0.00,,CLR,0.00,VWS V14.01,2013-10-03 11:19:00,
2013-10-03 07:24:00,49.1,49.1,30.13,SW,229,0.0,0.0,100,0.00,,CLR,0.00,VWS V14.01,2013-10-03 11:24:00,
2013-10-03 07:29:00,49.1,49.1,30.12,SW,229,0.0,0.0,100,0.00,,CLR,0.00,VWS V14.01,2013-10-03 11:29:00,
2013-10-03 07:34:00,49.1,49.1,30.13,SW,229,0.0,0.0,100,0.00,,CLR,0.00,VWS V14.01,2013-10-03 11:34:00,
2013-10-03 07:39:00,49.1,49.1,30.13,SW,229,0.0,0.0,100,0.00,,CLR,0.00,VWS V14.01,2013-10-03 11:39:00,
2013-10-03 07:44:00,49.3,49.3,30.13,SW,229,0.0,0.0,100,0.00,,CLR,0.00,VWS V14.01,2013-10-03 11:44:00,
2013-10-03 07:49:00,49.4,49.4,30.13,SW,229,0.0,0.0,100,0.00,,CLR,0.00,VWS V14.01,2013-10-03 11:49:00,
2013-10-03 07:54:00,49.3,49.3,30.13,SW,229,0.0,0.0,100,0.00,,CLR,0.00,VWS V14.01,2013-10-03 11:54:00,
2013-10-03 07:59:00,49.6,49.6,30.13,SW,229,0.0,0.0,100,0.00,,CLR,0.00,VWS V14.01,2013-10-03 11:59:00,
2013-10-03 08:04:00,49.8,49.8,30.13,SW,229,0.0,0.0,100,0.00,,CLR,0.00,VWS V14.01,2013-10-03 12:04:00,
2013-10-03 08:09:00,50.2,50.2,30.13,SW,229,0.0,0.0,100,0.00,,CLR,0.00,VWS V14.01,2013-10-03 12:09:00,
2013-10-03 08:14:00,50.5,50.5,30.13,SW,229,0.0,0.0,100,0.00,,CLR,0.00,VWS V14.01,2013-10-03 12:14:00,
2013-10-03 08:20:00,50.8,50.8,30.13,SW,229,0.0,0.0,100,0.00,,CLR,0.00,VWS V14.01,2013-10-03 12:20:00,
2013-10-03 08:25:00,51.1,51.1,30.14,SW,229,0.0,0.0,100,0.00,,CLR,0.00,VWS V14.01,2013-10-03 12:25:00,
2013-10-03 08:30:00,51.4,51.4,30.14,SW,229,0.0,0.0,100,0.00,,CLR,0.00,VWS V14.01,2013-10-03 12:30:00,
2013-10-03 08:35:00,51.8,51.8,30.14,SW,229,0.0,0.0,100,0.00,,CLR,0.00,VWS V14.01,2013-10-03 12:35:00,
2013-10-03 08:40:00,52.2,52.2,30.14,SW,229,0.0,0.0,100,0.00,,CLR,0.00,VWS V14.01,2013-10-03 12:40:00,
2013-10-03 08:45:00,52.7,52.7,30.14,SW,229,0.0,0.0,100,0.00,,CLR,0.00,VWS V14.01,2013-10-03 12:45:00,
2013-10-03 08:50:00,52.9,52.9,30.14,SW,229,0.0,0.0,100,0.00,,CLR,0.00,VWS V14.01,2013-10-03 12:50:00,
2013-10-03 08:55:00,53.2,53.2,30.15,SW,229,0.0,0.0,100,0.00,,CLR,0.00,VWS V14.01,2013-10-03 12:55:00,
2013-10-03 09:00:00,53.6,53.6,30.15,SW,229,0.0,0.0,100,0.00,,CLR,0.00,VWS V14.01,2013-10-03 13:00:00,
2013-10-03 09:05:00,54.0,54.0,30.14,SW,229,0.0,0.0,100,0.00,,CLR,0.00,VWS V14.01,2013-10-03 13:05:00,
2013-10-03 09:10:00,54.7,54.7,30.14,SW,229,0.0,0.0,100,0.00,,CLR,0.00,VWS V14.01,2013-10-03 13:10:00,
2013-10-03 09:15:00,55.4,55.4,30.15,SW,229,0.0,0.0,100,0.00,,CLR,0.00,VWS V14.01,2013-10-03 13:15:00,
2013-10-03 09:20:00,55.8,55.8,30.15,SW,229,0.0,0.0,100,0.00,,CLR,0.00,VWS V14.01,2013-10-03 13:20:00,
2013-10-03 09:25:00,56.2,56.2,30.15,SW,229,0.0,0.0,100,0.00,,CLR,0.00,VWS V14.01,2013-10-03 13:25:00,
2013-10-03 09:30:00,56.3,56.3,30.15,SW,229,0.0,0.0,100,0.00,,CLR,0.00,VWS V14.01,2013-10-03 13:30:00,
2013-10-03 09:35:00,56.3,56.3,30.14,SW,229,0.0,0.0,100,0.00,,CLR,0.00,VWS V14.01,2013-10-03 13:35:00,
2013-10-03 09:40:00,56.5,56.5,30.15,SW,229,0.0,0.0,100,0.00,,CLR,0.00,VWS V14.01,2013-10-03 13:40:00,
2013-10-03 09:45:00,56.7,56.7,30.15,SW,229,0.0,0.0,100,0.00,,CLR,0.00,VWS V14.01,2013-10-03 13:45:00,
2013-10-03 09:50:00,57.2,57.2,30.16,SW,229,0.0,0.0,100,0.00,,CLR,0.00,VWS V14.01,2013-10-03 13:50:00,
2013-10-03 09:55:00,58.0,57.8,30.15,SW,229,0.0,0.0,99,0.00,,CLR,0.00,VWS V14.01,2013-10-03 13:55:00,
2013-10-03 10:00:00,59.1,58.6,30.15,SW,229,0.0,0.0,98,0.00,,CLR,0.00,VWS V14.01,2013-10-03 14:00:00,
2013-10-03 10:05:00,59.7,58.8,30.15,SW,229,0.0,0.0,97,0.00,,CLR,0.00,VWS V14.01,2013-10-03 14:05:00,
2013-10-03 10:10:00,60.4,58.9,30.15,SW,229,0.0,0.0,95,0.00,,CLR,0.00,VWS V14.01,2013-10-03 14:10:00,
2013-10-03 10:16:00,60.9,58.7,30.15,SW,229,0.0,0.0,92,0.00,,CLR,0.00,VWS V14.01,2013-10-03 14:16:00,
2013-10-03 10:21:00,61.5,58.0,30.15,SW,229,0.0,0.0,88,0.00,,CLR,0.00,VWS V14.01,2013-10-03 14:21:00,
2013-10-03 10:26:00,62.2,57.9,30.15,SW,229,0.0,0.0,86,0.00,,CLR,0.00,VWS V14.01,2013-10-03 14:26:00,
2013-10-03 10:31:00,63.0,56.5,30.15,SW,229,0.0,0.0,79,0.00,,CLR,0.00,VWS V14.01,2013-10-03 14:31:00,
2013-10-03 10:36:00,63.7,56.9,30.15,SW,229,0.0,0.0,78,0.00,,CLR,0.00,VWS V14.01,2013-10-03 14:36:00,
2013-10-03 10:41:00,63.9,57.2,30.15,SW,229,0.0,0.0,79,0.00,,CLR,0.00,VWS V14.01,2013-10-03 14:41:00,
2013-10-03 10:46:00,64.6,56.1,30.15,SW,229,0.0,0.0,74,0.00,,CLR,0.00,VWS V14.01,2013-10-03 14:46:00,
2013-10-03 10:51:00,64.8,56.7,30.15,SW,229,0.0,0.0,75,0.00,,CLR,0.00,VWS V14.01,2013-10-03 14:51:00,
2013-10-03 10:56:00,64.7,55.8,30.15,SW,229,0.0,0.0,73,0.00,,CLR,0.00,VWS V14.01,2013-10-03 14:56:00,
2013-10-03 11:01:00,64.9,56.7,30.15,SW,229,0.0,0.0,75,0.00,,CLR,0.00,VWS V14.01,2013-10-03 15:01:00,
2013-10-03 11:06:00,65.0,56.6,30.15,SW,229,0.0,0.0,74,0.00,,CLR,0.00,VWS V14.01,2013-10-03 15:06:00,
2013-10-03 11:11:00,65.1,56.9,30.15,SW,229,0.0,0.0,75,0.00,,CLR,0.00,VWS V14.01,2013-10-03 15:11:00,
2013-10-03 11:16:00,65.7,55.3,30.15,SSW,205,0.0,3.2,69,0.00,,CLR,0.00,VWS V14.01,2013-10-03 15:16:00,
2013-10-03 11:21:00,66.6,55.6,30.15,SSW,205,0.0,3.2,68,0.00,,CLR,0.00,VWS V14.01,2013-10-03 15:21:00,
2013-10-03 11:26:00,66.9,55.9,30.15,SSW,205,0.0,0.0,68,0.00,,CLR,0.00,VWS V14.01,2013-10-03 15:26:00,
2013-10-03 11:31:00,67.4,56.6,30.14,SSW,205,0.0,0.0,68,0.00,,CLR,0.00,VWS V14.01,2013-10-03 15:31:00,
2013-10-03 11:36:00,67.7,54.2,30.14,West,273,0.0,4.3,62,0.00,,CLR,0.00,VWS V14.01,2013-10-03 15:36:00,
2013-10-03 11:41:00,68.5,54.8,30.14,West,273,0.0,4.3,62,0.00,,CLR,0.00,VWS V14.01,2013-10-03 15:41:00,
2013-10-03 11:46:00,68.6,55.2,30.14,SSE,148,3.4,5.7,62,0.00,,CLR,0.00,VWS V14.01,2013-10-03 15:46:00,
2013-10-03 11:51:00,68.9,55.0,30.14,NNE,22,1.6,5.7,61,0.00,,CLR,0.00,VWS V14.01,2013-10-03 15:51:00,
2013-10-03 11:56:00,69.1,55.5,30.14,NNE,22,0.0,0.0,62,0.00,,CLR,0.00,VWS V14.01,2013-10-03 15:56:00,
2013-10-03 12:01:00,69.0,56.2,30.13,West,270,0.0,4.3,64,0.00,,CLR,0.00,VWS V14.01,2013-10-03 16:01:00,
2013-10-03 12:06:00,68.9,57.3,30.13,West,270,0.0,0.0,66,0.00,,CLR,0.00,VWS V14.01,2013-10-03 16:06:00,
2013-10-03 12:11:00,68.9,58.0,30.13,West,270,0.0,0.0,68,0.00,,CLR,0.00,VWS V14.01,2013-10-03 16:11:00,
2013-10-03 12:16:00,69.1,56.7,30.13,West,270,0.0,3.0,65,0.00,,CLR,0.00,VWS V14.01,2013-10-03 16:16:00,
2013-10-03 12:22:00,69.5,58.2,30.13,West,270,0.0,3.0,67,0.00,,CLR,0.00,VWS V14.01,2013-10-03 16:22:00,
2013-10-03 12:27:00,69.6,58.6,30.13,West,270,0.0,0.0,68,0.00,,CLR,0.00,VWS V14.01,2013-10-03 16:27:00,
2013-10-03 12:32:00,69.8,56.3,30.12,West,270,0.0,2.7,62,0.00,,CLR,0.00,VWS V14.01,2013-10-03 16:32:00,
2013-10-03 12:37:00,70.3,55.6,30.12,SW,217,0.0,3.5,60,0.00,,CLR,0.00,VWS V14.01,2013-10-03 16:37:00,
2013-10-03 12:42:00,70.6,56.1,30.12,West,264,0.0,3.5,60,0.00,,CLR,0.00,VWS V14.01,2013-10-03 16:42:00,
2013-10-03 12:47:00,71.0,56.2,30.12,SW,231,0.0,4.9,60,0.00,,CLR,0.00,VWS V14.01,2013-10-03 16:47:00,
2013-10-03 12:52:00,71.1,56.4,30.12,SW,231,0.0,4.9,60,0.00,,CLR,0.00,VWS V14.01,2013-10-03 16:52:00,
2013-10-03 12:57:00,71.5,57.9,30.12,SW,231,0.0,0.0,62,0.00,,CLR,0.00,VWS V14.01,2013-10-03 16:57:00,
2013-10-03 13:02:00,71.1,56.9,30.12,WSW,240,0.0,5.3,61,0.00,,CLR,0.00,VWS V14.01,2013-10-03 17:02:00,
2013-10-03 13:07:00,70.9,56.5,30.11,WSW,239,0.0,5.7,60,0.00,,CLR,0.00,VWS V14.01,2013-10-03 17:07:00,
2013-10-03 13:12:00,71.1,58.5,30.11,WSW,239,0.0,5.7,64,0.00,,CLR,0.00,VWS V14.01,2013-10-03 17:12:00,
2013-10-03 13:17:00,70.5,57.8,30.11,SW,214,0.0,3.0,64,0.00,,CLR,0.00,VWS V14.01,2013-10-03 17:17:00,
2013-10-03 13:22:00,70.6,58.5,30.11,SW,214,0.0,0.0,66,0.00,,CLR,0.00,VWS V14.01,2013-10-03 17:22:00,
2013-10-03 13:27:00,70.6,58.3,30.11,SW,214,0.0,0.0,65,0.00,,CLR,0.00,VWS V14.01,2013-10-03 17:27:00,
2013-10-03 13:32:00,70.6,59.7,30.10,SW,214,0.0,0.0,68,0.00,,CLR,0.00,VWS V14.01,2013-10-03 17:32:00,
2013-10-03 13:37:00,70.3,57.0,30.10,SW,214,0.0,0.0,63,0.00,,CLR,0.00,VWS V14.01,2013-10-03 17:37:00,
2013-10-03 13:42:00,71.1,58.0,30.10,South,181,0.0,0.0,63,0.00,,CLR,0.00,VWS V14.01,2013-10-03 17:42:00,
2013-10-03 13:47:00,71.2,56.3,30.10,South,181,0.0,0.0,59,0.00,,CLR,0.00,VWS V14.01,2013-10-03 17:47:00,
2013-10-03 13:52:00,71.6,57.4,30.10,South,181,0.0,0.0,61,0.00,,CLR,0.00,VWS V14.01,2013-10-03 17:52:00,
2013-10-03 13:57:00,71.7,56.3,30.09,South,181,0.0,0.0,58,0.00,,CLR,0.00,VWS V14.01,2013-10-03 17:57:00,
2013-10-03 14:03:00,72.0,56.8,30.10,South,181,0.0,0.0,59,0.00,,CLR,0.00,VWS V14.01,2013-10-03 18:03:00,
2013-10-03 14:08:00,72.2,58.3,30.09,South,181,0.0,0.0,62,0.00,,CLR,0.00,VWS V14.01,2013-10-03 18:08:00,
2013-10-03 14:13:00,72.3,59.4,30.09,ESE,115,0.0,0.0,64,0.00,,CLR,0.00,VWS V14.01,2013-10-03 18:13:00,
2013-10-03 14:18:00,72.6,57.1,30.09,ESE,115,0.0,0.0,58,0.00,,CLR,0.00,VWS V14.01,2013-10-03 18:18:00,
2013-10-03 14:23:00,72.9,59.2,30.09,ESE,115,0.0,0.0,62,0.00,,CLR,0.00,VWS V14.01,2013-10-03 18:23:00,
2013-10-03 14:28:00,72.9,61.2,30.09,ESE,115,0.0,0.0,67,0.00,,CLR,0.00,VWS V14.01,2013-10-03 18:28:00,
2013-10-03 14:33:00,73.0,56.5,30.09,WSW,249,0.0,0.0,56,0.00,,CLR,0.00,VWS V14.01,2013-10-03 18:33:00,
2013-10-03 14:38:00,73.2,56.6,30.09,WSW,249,0.0,0.0,56,0.00,,CLR,0.00,VWS V14.01,2013-10-03 18:38:00,
2013-10-03 14:43:00,73.7,58.5,30.09,WSW,249,0.0,0.0,59,0.00,,CLR,0.00,VWS V14.01,2013-10-03 18:43:00,
2013-10-03 14:48:00,73.7,56.7,30.09,SSW,201,0.0,4.3,55,0.00,,CLR,0.00,VWS V14.01,2013-10-03 18:48:00,
2013-10-03 14:53:00,74.4,56.7,30.08,SSW,201,0.0,0.0,54,0.00,,CLR,0.00,VWS V14.01,2013-10-03 18:53:00,
2013-10-03 14:58:00,75.1,58.9,30.08,SSW,201,0.0,0.0,57,0.00,,CLR,0.00,VWS V14.01,2013-10-03 18:58:00,
2013-10-03 15:03:00,75.3,56.8,30.08,SSW,194,0.0,0.0,53,0.00,,CLR,0.00,VWS V14.01,2013-10-03 19:03:00,
2013-10-03 15:08:00,75.4,58.5,30.08,SSW,194,0.0,0.0,56,0.00,,CLR,0.00,VWS V14.01,2013-10-03 19:08:00,
2013-10-03 15:13:00,75.1,59.7,30.08,SSW,194,0.0,0.0,59,0.00,,CLR,0.00,VWS V14.01,2013-10-03 19:13:00,
2013-10-03 15:18:00,74.9,59.3,30.08,SSW,194,0.0,0.0,58,0.00,,CLR,0.00,VWS V14.01,2013-10-03 19:18:00,
2013-10-03 15:23:00,74.6,56.8,30.08,SSW,207,0.0,0.0,54,0.00,,CLR,0.00,VWS V14.01,2013-10-03 19:23:00,
2013-10-03 15:28:00,74.4,59.9,30.08,SSW,207,0.0,0.0,61,0.00,,CLR,0.00,VWS V14.01,2013-10-03 19:28:00,
2013-10-03 15:33:00,74.0,57.3,30.08,SSW,207,0.0,0.0,56,0.00,,CLR,0.00,VWS V14.01,2013-10-03 19:33:00,
2013-10-03 15:38:00,74.2,58.2,30.08,SSW,207,0.0,0.0,58,0.00,,CLR,0.00,VWS V14.01,2013-10-03 19:38:00,
2013-10-03 15:43:00,74.0,57.6,30.08,SSW,207,0.0,0.0,56,0.00,,CLR,0.00,VWS V14.01,2013-10-03 19:43:00,
2013-10-03 15:48:00,74.0,54.8,30.08,SSW,207,0.0,0.0,51,0.00,,CLR,0.00,VWS V14.01,2013-10-03 19:48:00,
2013-10-03 15:54:00,74.0,56.9,30.08,SSW,207,0.0,0.0,55,0.00,,CLR,0.00,VWS V14.01,2013-10-03 19:54:00,
2013-10-03 15:59:00,73.6,57.2,30.08,SSW,207,0.0,0.0,57,0.00,,CLR,0.00,VWS V14.01,2013-10-03 19:59:00,
2013-10-03 16:04:00,73.4,58.7,30.08,SSW,207,0.0,0.0,60,0.00,,CLR,0.00,VWS V14.01,2013-10-03 20:04:00,
2013-10-03 16:09:00,73.1,60.1,30.07,SSW,207,0.0,0.0,64,0.00,,CLR,0.00,VWS V14.01,2013-10-03 20:09:00,
2013-10-03 16:14:00,72.6,60.7,30.07,SSW,207,0.0,0.0,66,0.00,,CLR,0.00,VWS V14.01,2013-10-03 20:14:00,
2013-10-03 16:19:00,71.9,60.8,30.07,SSW,207,0.0,0.0,68,0.00,,CLR,0.00,VWS V14.01,2013-10-03 20:19:00,
2013-10-03 16:24:00,71.6,61.6,30.07,SSW,207,0.0,0.0,71,0.00,,CLR,0.00,VWS V14.01,2013-10-03 20:24:00,
2013-10-03 16:29:00,71.6,61.8,30.07,SSW,207,0.0,0.0,71,0.00,,CLR,0.00,VWS V14.01,2013-10-03 20:29:00,
2013-10-03 16:34:00,71.2,60.5,30.07,SSW,207,0.0,0.0,69,0.00,,CLR,0.00,VWS V14.01,2013-10-03 20:34:00,
2013-10-03 16:39:00,70.9,60.6,30.07,SSW,207,0.0,0.0,70,0.00,,CLR,0.00,VWS V14.01,2013-10-03 20:39:00,
2013-10-03 16:44:00,70.5,61.3,30.07,SSW,207,0.0,0.0,73,0.00,,CLR,0.00,VWS V14.01,2013-10-03 20:44:00,
2013-10-03 16:49:00,70.0,61.0,30.07,SSW,207,0.0,0.0,73,0.00,,CLR,0.00,VWS V14.01,2013-10-03 20:49:00,
2013-10-03 16:54:00,69.6,61.2,30.08,SSW,207,0.0,0.0,75,0.00,,CLR,0.00,VWS V14.01,2013-10-03 20:54:00,
2013-10-03 16:59:00,69.5,61.8,30.08,SSW,207,0.0,0.0,76,0.00,,CLR,0.00,VWS V14.01,2013-10-03 20:59:00,
2013-10-03 17:05:00,69.3,62.0,30.08,SSW,207,0.0,0.0,78,0.00,,CLR,0.00,VWS V14.01,2013-10-03 21:05:00,
2013-10-03 17:10:00,68.9,61.9,30.07,SSW,207,0.0,0.0,78,0.00,,CLR,0.00,VWS V14.01,2013-10-03 21:10:00,
2013-10-03 17:15:00,68.7,62.2,30.08,SSW,207,0.0,0.0,80,0.00,,CLR,0.00,VWS V14.01,2013-10-03 21:15:00,
2013-10-03 17:20:00,68.6,62.5,30.08,SSW,207,0.0,0.0,81,0.00,,CLR,0.00,VWS V14.01,2013-10-03 21:20:00,
2013-10-03 17:25:00,68.5,62.7,30.08,SSW,207,0.0,0.0,82,0.00,,CLR,0.00,VWS V14.01,2013-10-03 21:25:00,
2013-10-03 17:30:00,68.4,62.8,30.08,SSW,207,0.0,0.0,82,0.00,,CLR,0.00,VWS V14.01,2013-10-03 21:30:00,
2013-10-03 17:36:00,68.2,62.8,30.08,SSW,207,0.0,0.0,83,0.00,,CLR,0.00,VWS V14.01,2013-10-03 21:36:00,
2013-10-03 17:41:00,68.1,62.9,30.08,SSW,207,0.0,0.0,83,0.00,,CLR,0.00,VWS V14.01,2013-10-03 21:41:00,
2013-10-03 17:46:00,67.9,62.9,30.08,SSW,207,0.0,0.0,84,0.00,,CLR,0.00,VWS V14.01,2013-10-03 21:46:00,
2013-10-03 17:51:00,67.4,62.8,30.08,SSW,207,0.0,0.0,85,0.00,,CLR,0.00,VWS V14.01,2013-10-03 21:51:00,
2013-10-03 17:56:00,67.2,62.8,30.08,SSW,207,0.0,0.0,86,0.00,,CLR,0.00,VWS V14.01,2013-10-03 21:56:00,
2013-10-03 18:01:00,67.0,62.8,30.08,SSW,207,0.0,0.0,86,0.00,,CLR,0.00,VWS V14.01,2013-10-03 22:01:00,
2013-10-03 18:07:00,66.7,62.7,30.08,SSW,207,0.0,0.0,87,0.00,,CLR,0.00,VWS V14.01,2013-10-03 22:07:00,
2013-10-03 18:12:00,66.3,62.6,30.08,SSW,207,0.0,0.0,88,0.00,,CLR,0.00,VWS V14.01,2013-10-03 22:12:00,
2013-10-03 18:17:00,66.1,62.6,30.08,SSW,207,0.0,0.0,88,0.00,,CLR,0.00,VWS V14.01,2013-10-03 22:17:00,
2013-10-03 18:22:00,65.9,62.5,30.08,SSW,207,0.0,0.0,89,0.00,,CLR,0.00,VWS V14.01,2013-10-03 22:22:00,
2013-10-03 18:27:00,65.7,62.4,30.08,SSW,207,0.0,0.0,89,0.00,,CLR,0.00,VWS V14.01,2013-10-03 22:27:00,
2013-10-03 18:32:00,65.5,62.4,30.08,SSW,207,0.0,0.0,90,0.00,,CLR,0.00,VWS V14.01,2013-10-03 22:32:00,
2013-10-03 18:37:00,65.2,62.3,30.08,SSW,207,0.0,0.0,90,0.00,,CLR,0.00,VWS V14.01,2013-10-03 22:37:00,
2013-10-03 18:42:00,65.0,62.2,30.08,SSW,207,0.0,0.0,90,0.00,,CLR,0.00,VWS V14.01,2013-10-03 22:42:00,
2013-10-03 18:47:00,64.8,62.0,30.08,SSW,207,0.0,0.0,91,0.00,,CLR,0.00,VWS V14.01,2013-10-03 22:47:00,
2013-10-03 18:52:00,64.4,61.8,30.08,SSW,207,0.0,0.0,91,0.00,,CLR,0.00,VWS V14.01,2013-10-03 22:52:00,
2013-10-03 18:57:00,64.2,61.7,30.08,SSW,207,0.0,0.0,92,0.00,,CLR,0.00,VWS V14.01,2013-10-03 22:57:00,
2013-10-03 19:02:00,64.0,61.5,30.09,SSW,207,0.0,0.0,92,0.00,,CLR,0.00,VWS V14.01,2013-10-03 23:02:00,
2013-10-03 19:07:00,63.8,61.4,30.08,SSW,207,0.0,0.0,92,0.00,,CLR,0.00,VWS V14.01,2013-10-03 23:07:00,
2013-10-03 19:12:00,63.6,61.3,30.09,SSW,207,0.0,0.0,92,0.00,,CLR,0.00,VWS V14.01,2013-10-03 23:12:00,
2013-10-03 19:18:00,63.4,61.2,30.09,SSW,207,0.0,0.0,92,0.00,,CLR,0.00,VWS V14.01,2013-10-03 23:18:00,
2013-10-03 19:23:00,63.2,61.1,30.09,SSW,207,0.0,0.0,93,0.00,,CLR,0.00,VWS V14.01,2013-10-03 23:23:00,
2013-10-03 19:28:00,63.0,61.0,30.09,SSW,207,0.0,0.0,93,0.00,,CLR,0.00,VWS V14.01,2013-10-03 23:28:00,
2013-10-03 19:33:00,62.9,60.9,30.09,SSW,207,0.0,0.0,93,0.00,,CLR,0.00,VWS V14.01,2013-10-03 23:33:00,
2013-10-03 19:38:00,62.8,60.8,30.09,SSW,207,0.0,0.0,93,0.00,,CLR,0.00,VWS V14.01,2013-10-03 23:38:00,
2013-10-03 19:43:00,62.7,60.8,30.09,SSW,207,0.0,0.0,93,0.00,,CLR,0.00,VWS V14.01,2013-10-03 23:43:00,
2013-10-03 19:48:00,62.6,60.8,30.09,SSW,207,0.0,0.0,94,0.00,,CLR,0.00,VWS V14.01,2013-10-03 23:48:00,
2013-10-03 19:53:00,62.5,60.7,30.09,SSW,207,0.0,0.0,94,0.00,,CLR,0.00,VWS V14.01,2013-10-03 23:53:00,
2013-10-03 19:58:00,62.3,60.5,30.09,SSW,207,0.0,0.0,94,0.00,,CLR,0.00,VWS V14.01,2013-10-03 23:58:00,
2013-10-03 20:03:00,62.2,60.5,30.09,SSW,207,0.0,0.0,94,0.00,,CLR,0.00,VWS V14.01,2013-10-04 00:03:00,
2013-10-03 20:08:00,62.1,60.4,30.09,SSW,207,0.0,0.0,94,0.00,,CLR,0.00,VWS V14.01,2013-10-04 00:08:00,
2013-10-03 20:13:00,61.9,60.2,30.09,SSW,207,0.0,0.0,94,0.00,,CLR,0.00,VWS V14.01,2013-10-04 00:13:00,
2013-10-03 20:18:00,61.8,60.2,30.09,SSW,207,0.0,0.0,94,0.00,,CLR,0.00,VWS V14.01,2013-10-04 00:18:00,
2013-10-03 20:23:00,61.7,60.1,30.09,SSW,207,0.0,0.0,94,0.00,,CLR,0.00,VWS V14.01,2013-10-04 00:23:00,
2013-10-03 20:28:00,61.5,59.9,30.09,SSW,207,0.0,0.0,95,0.00,,CLR,0.00,VWS V14.01,2013-10-04 00:28:00,
2013-10-03 20:33:00,61.4,59.8,30.09,SSW,207,0.0,0.0,95,0.00,,CLR,0.00,VWS V14.01,2013-10-04 00:33:00,
2013-10-03 20:38:00,61.3,59.8,30.09,SSW,207,0.0,0.0,95,0.00,,CLR,0.00,VWS V14.01,2013-10-04 00:38:00,
2013-10-03 20:43:00,61.2,59.8,30.09,SSW,207,0.0,0.0,95,0.00,,CLR,0.00,VWS V14.01,2013-10-04 00:43:00,
2013-10-03 20:48:00,61.0,59.6,30.09,SSW,207,0.0,0.0,95,0.00,,CLR,0.00,VWS V14.01,2013-10-04 00:48:00,
2013-10-03 20:53:00,60.9,59.5,30.10,SSW,207,0.0,0.0,95,0.00,,CLR,0.00,VWS V14.01,2013-10-04 00:53:00,
2013-10-03 20:58:00,60.7,59.3,30.10,SSW,207,0.0,0.0,95,0.00,,CLR,0.00,VWS V14.01,2013-10-04 00:58:00,
2013-10-03 21:03:00,60.5,59.2,30.09,SSW,207,0.0,0.0,95,0.00,,CLR,0.00,VWS V14.01,2013-10-04 01:03:00,
2013-10-03 21:08:00,60.4,59.1,30.09,SSW,207,0.0,0.0,95,0.00,,CLR,0.00,VWS V14.01,2013-10-04 01:08:00,
2013-10-03 21:13:00,60.3,59.0,30.10,SSW,207,0.0,0.0,95,0.00,,CLR,0.00,VWS V14.01,2013-10-04 01:13:00,
2013-10-03 21:19:00,60.1,58.8,30.10,SSW,207,0.0,0.0,96,0.00,,CLR,0.00,VWS V14.01,2013-10-04 01:19:00,
2013-10-03 21:24:00,59.9,58.6,30.10,SSW,207,0.0,0.0,96,0.00,,CLR,0.00,VWS V14.01,2013-10-04 01:24:00,
2013-10-03 21:29:00,59.8,58.6,30.10,SSW,207,0.0,0.0,96,0.00,,CLR,0.00,VWS V14.01,2013-10-04 01:29:00,
2013-10-03 21:34:00,59.6,58.4,30.10,SSW,207,0.0,0.0,96,0.00,,CLR,0.00,VWS V14.01,2013-10-04 01:34:00,
2013-10-03 21:39:00,59.5,58.4,30.10,SSW,207,0.0,0.0,96,0.00,,CLR,0.00,VWS V14.01,2013-10-04 01:39:00,
2013-10-03 21:44:00,59.4,58.3,30.10,SSW,207,0.0,0.0,96,0.00,,CLR,0.00,VWS V14.01,2013-10-04 01:44:00,
2013-10-03 21:49:00,59.4,58.3,30.10,SSW,207,0.0,0.0,96,0.00,,CLR,0.00,VWS V14.01,2013-10-04 01:49:00,
2013-10-03 21:54:00,59.4,58.4,30.11,SSW,207,0.0,0.0,96,0.00,,CLR,0.00,VWS V14.01,2013-10-04 01:54:00,
2013-10-03 21:59:00,59.3,58.3,30.10,SSW,207,0.0,0.0,96,0.00,,CLR,0.00,VWS V14.01,2013-10-04 01:59:00,
2013-10-03 22:04:00,59.2,58.2,30.11,SSW,207,0.0,0.0,97,0.00,,CLR,0.00,VWS V14.01,2013-10-04 02:04:00,
2013-10-03 22:09:00,59.0,58.1,30.11,SSW,207,0.0,0.0,97,0.00,,CLR,0.00,VWS V14.01,2013-10-04 02:09:00,
2013-10-03 22:14:00,58.9,58.0,30.11,SSW,207,0.0,0.0,97,0.00,,CLR,0.00,VWS V14.01,2013-10-04 02:14:00,
2013-10-03 22:19:00,58.8,57.9,30.11,SSW,207,0.0,0.0,97,0.00,,CLR,0.00,VWS V14.01,2013-10-04 02:19:00,
2013-10-03 22:24:00,58.7,57.8,30.11,SSW,207,0.0,0.0,97,0.00,,CLR,0.00,VWS V14.01,2013-10-04 02:24:00,
2013-10-03 22:29:00,58.5,57.7,30.11,SSW,207,0.0,0.0,97,0.00,,CLR,0.00,VWS V14.01,2013-10-04 02:29:00,
2013-10-03 22:34:00,58.4,57.6,30.11,SSW,207,0.0,0.0,97,0.00,,CLR,0.00,VWS V14.01,2013-10-04 02:34:00,
2013-10-03 22:39:00,58.3,57.5,30.11,SSW,207,0.0,0.0,97,0.00,,CLR,0.00,VWS V14.01,2013-10-04 02:39:00,
2013-10-03 22:44:00,58.2,57.5,30.11,SSW,207,0.0,0.0,97,0.00,,CLR,0.00,VWS V14.01,2013-10-04 02:44:00,
2013-10-03 22:49:00,58.1,57.4,30.11,SSW,207,0.0,0.0,98,0.00,,CLR,0.00,VWS V14.01,2013-10-04 02:49:00,
2013-10-03 22:54:00,58.0,57.3,30.11,SSW,207,0.0,0.0,98,0.00,,CLR,0.00,VWS V14.01,2013-10-04 02:54:00,
2013-10-03 22:59:00,57.9,57.3,30.11,SSW,207,0.0,0.0,98,0.00,,CLR,0.00,VWS V14.01,2013-10-04 02:59:00,
2013-10-03 23:04:00,57.8,57.2,30.11,SSW,207,0.0,0.0,98,0.00,,CLR,0.00,VWS V14.01,2013-10-04 03:04:00,
2013-10-03 23:09:00,57.8,57.2,30.11,SSW,207,0.0,0.0,98,0.00,,CLR,0.00,VWS V14.01,2013-10-04 03:09:00,
2013-10-03 23:15:00,57.7,57.1,30.11,SSW,207,0.0,0.0,98,0.00,,CLR,0.00,VWS V14.01,2013-10-04 03:15:00,
2013-10-03 23:20:00,57.6,57.0,30.11,SSW,207,0.0,0.0,98,0.00,,CLR,0.00,VWS V14.01,2013-10-04 03:20:00,
2013-10-03 23:25:00,57.5,57.0,30.11,SSW,207,0.0,0.0,98,0.00,,CLR,0.00,VWS V14.01,2013-10-04 03:25:00,
2013-10-03 23:30:00,57.4,56.9,30.11,SSW,207,0.0,0.0,98,0.00,,CLR,0.00,VWS V14.01,2013-10-04 03:30:00,
2013-10-03 23:35:00,57.4,56.9,30.11,SSW,207,0.0,0.0,98,0.00,,CLR,0.00,VWS V14.01,2013-10-04 03:35:00,
2013-10-03 23:40:00,57.3,56.8,30.11,SSW,207,0.0,0.0,98,0.00,,CLR,0.00,VWS V14.01,2013-10-04 03:40:00,
2013-10-03 23:45:00,57.2,56.7,30.10,SSW,207,0.0,0.0,98,0.00,,CLR,0.00,VWS V14.01,2013-10-04 03:45:00,
2013-10-03 23:50:00,57.2,56.8,30.10,SSW,207,0.0,0.0,98,0.00,,CLR,0.00,VWS V14.01,2013-10-04 03:50:00,
2013-10-03 23:55:00,57.1,56.7,30.11,SSW,207,0.0,0.0,99,0.00,,CLR,0.00,VWS V14.01,2013-10-04 03:55:00,